GFSFLT2_sfc_30mbdewp_045.txt.gz
Dewpoint
63 66 65 66 65 65 64 64 63 62 62 61 61 61 61 61 61 61 61 59 57 54 53 52 50 46 45 49 48 48 44 48
64 64 64 64 64 63 63 62 62 61 60 59 59 59 60 59 59 59 59 57 54 50 48 49 50 48 45 51 47 46 44 46
63 62 63 63 63 63 62 61 59 59 58 58 58 59 59 60 56 57 56 54 51 49 47 48 50 50 49 49 45 45 44 46
62 63 61 60 60 61 61 60 58 58 57 58 57 57 59 56 55 55 54 53 51 49 48 51 49 47 47 46 46 44 42 43
61 62 59 56 58 58 59 58 57 57 57 57 58 59 59 56 55 56 55 55 54 51 48 46 44 45 47 44 45 40 38 42
57 56 54 55 57 57 57 58 59 61 63 62 61 60 60 59 57 56 52 50 47 47 43 42 42 39 40 41 37 34 35 36
54 55 54 55 56 59 61 61 62 63 61 61 60 59 57 55 50 49 48 46 45 42 39 40 38 37 34 37 33 31 29 35
54 56 56 61 61 61 61 62 61 60 60 59 58 57 52 49 48 47 46 43 42 38 38 36 36 35 32 33 34 30 29 32
54 57 61 59 57 57 58 59 59 58 59 57 56 51 49 49 47 45 44 43 38 38 35 34 33 34 31 32 33 31 33 32
55 60 58 57 56 57 57 57 57 58 56 54 52 50 49 47 44 42 43 41 39 37 35 35 34 35 33 30 33 32 31 30
59 58 56 56 56 56 56 55 55 55 52 49 48 48 47 45 42 40 42 39 37 36 36 36 35 35 33 31 32 33 30 32
57 57 56 56 56 56 56 55 53 53 49 47 47 47 46 43 43 40 39 38 36 36 37 38 36 36 35 32 31 31 32 31
57 56 56 56 55 54 53 51 51 48 46 47 47 47 43 44 43 41 38 37 35 39 37 36 36 36 33 32 32 31 28 31
57 56 56 57 55 53 52 49 48 45 45 46 47 45 41 39 38 37 37 36 38 38 37 36 37 36 33 33 30 31 31 31
57 57 56 57 56 53 52 49 47 46 46 46 46 41 39 39 38 37 37 38 37 37 38 37 36 37 36 34 31 29 31 30
58 57 57 57 55 53 51 47 46 46 46 47 42 41 40 38 37 36 38 39 37 39 39 37 36 33 36 36 35 34 32 31
58 57 57 57 56 53 49 47 46 46 46 45 42 41 40 39 40 40 37 36 35 33 32 33 34 33 33 36 35 35 35 33
58 57 56 55 52 50 47 46 45 46 46 44 43 43 40 38 35 33 33 32 32 32 32 32 33 34 35 37 36 35 34 35
58 57 53 50 48 47 47 44 43 43 43 41 37 36 35 32 31 31 31 31 30 31 31 32 32 34 36 37 37 35 35 36
55 51 48 47 46 47 45 40 38 38 39 35 35 33 32 31 30 30 29 30 31 31 32 34 35 35 36 36 36 35 35 34

GFSFLT2_sfc_30mbdewp_048.txt.gz
Dewpoint
62 63 63 66 65 64 63 63 63 63 63 62 62 62 61 61 61 60 58 56 54 53 51 51 50 49 51 48 49 48 46 49
60 60 63 64 64 63 62 62 62 61 61 60 60 60 59 59 59 58 57 55 52 50 50 50 51 51 49 49 46 45 46 48
59 61 63 63 63 62 62 61 60 60 60 59 59 59 57 56 56 57 56 53 51 51 53 52 49 49 49 48 45 42 42 48
62 61 62 62 61 61 60 59 59 58 58 57 57 58 59 55 57 58 55 54 53 52 48 46 43 44 45 45 42 38 38 43
62 61 61 59 59 60 59 58 56 56 57 56 57 59 58 56 56 55 55 52 47 44 43 42 39 38 40 39 35 33 33 39
62 60 58 57 58 58 57 56 58 58 58 59 59 59 58 55 54 53 49 47 43 41 41 39 37 35 36 36 33 30 30 36
61 58 55 56 57 57 58 59 61 61 61 60 60 58 57 52 50 47 46 44 39 37 36 35 35 32 32 33 32 30 31 33
59 56 54 57 59 59 60 61 62 60 59 58 58 55 49 48 47 45 43 40 39 36 34 33 34 33 32 33 32 31 33 30
56 57 59 59 60 61 61 60 59 59 58 55 52 50 49 48 45 44 42 39 36 35 34 34 34 34 32 33 32 33 31 31
59 60 58 58 58 58 58 58 58 57 56 52 51 50 48 44 42 43 42 39 37 36 34 34 35 35 33 32 31 31 31 31
59 58 57 56 57 56 56 56 56 55 52 50 50 48 46 41 40 42 39 38 37 36 36 36 35 35 34 32 31 31 31 31
58 57 56 56 55 55 54 53 53 51 49 48 48 48 44 42 41 40 39 36 36 37 37 37 36 36 35 32 32 32 32 30
57 56 56 55 54 53 52 51 52 49 48 47 47 46 44 42 41 38 38 35 38 37 37 35 36 37 33 33 32 33 30 31
57 56 55 55 54 53 52 51 50 47 46 47 47 43 42 41 39 36 36 37 37 37 37 36 37 37 35 34 31 32 31 32
56 56 55 55 54 52 50 48 47 45 45 46 47 42 40 39 38 37 37 38 37 38 38 37 35 36 36 34 30 30 31 32
56 55 55 55 54 52 49 47 45 45 45 46 46 41 40 39 38 38 39 39 38 37 34 34 34 30 34 35 35 34 32 31
57 55 55 55 55 53 49 47 46 46 46 46 43 41 40 39 39 39 37 35 33 32 31 32 33 32 32 34 35 35 35 33
57 56 56 57 56 53 51 47 46 46 46 44 42 43 39 36 34 33 33 31 30 31 31 30 31 32 34 35 36 35 34 34
57 57 56 56 56 53 51 47 46 46 46 44 41 37 34 32 32 31 31 30 31 31 32 33 34 35 35 36 37 36 36 36
57 57 56 54 53 51 49 46 46 46 44 41 37 35 34 33 33 31 30 31 32 34 35 35 33 34 34 34 35 35 35 35

GFSFLT2_sfc_30mbdewp_051.txt.gz
Dewpoint
63 64 63 65 64 64 63 64 64 64 63 62 62 62 62 61 60 59 58 57 54 54 53 53 52 51 52 51 50 49 47 49
61 63 64 63 63 62 62 63 63 63 62 61 61 61 61 60 59 58 56 55 54 55 53 52 52 50 51 49 46 47 47 48
56 60 62 62 61 61 62 62 62 61 61 60 60 60 59 56 58 57 55 54 56 53 50 49 47 49 50 44 40 39 44 47
52 50 55 62 61 61 61 61 60 59 59 59 58 58 56 57 58 57 55 55 51 49 46 42 40 41 39 37 33 33 38 45
57 55 58 61 60 60 59 59 58 58 58 57 58 59 56 56 55 54 51 47 43 41 39 37 35 37 36 33 31 31 34 37
61 61 61 59 59 59 58 56 57 56 56 57 59 58 55 54 54 50 46 43 40 39 38 35 33 33 34 32 31 32 32 33
61 60 59 58 57 57 57 57 57 59 60 60 59 58 57 53 50 47 43 39 37 35 34 33 32 32 34 32 31 32 31 31
61 59 57 57 56 57 57 59 61 60 59 60 59 56 52 48 45 43 40 38 35 33 32 33 34 32 33 32 32 31 31 33
60 58 55 57 57 58 59 61 60 58 57 57 53 51 49 46 44 42 39 36 35 35 35 34 34 34 32 32 31 32 31 31
58 56 57 58 58 59 59 59 58 57 54 52 51 49 48 45 43 41 39 37 36 35 35 35 35 35 32 31 31 32 31 29
57 58 57 57 57 57 57 57 56 55 52 51 49 48 45 43 42 41 38 37 36 36 36 35 34 35 34 32 32 32 31 28
58 57 57 57 56 55 55 55 54 52 51 49 48 46 42 41 41 39 38 36 36 37 36 37 36 36 35 32 34 32 31 29
57 56 56 56 55 53 53 52 51 49 48 48 48 45 43 40 39 38 36 35 36 36 36 35 36 37 33 34 33 33 31 30
57 56 55 55 54 53 52 51 51 48 47 47 47 45 43 40 38 37 36 37 37 37 36 36 37 37 33 33 30 32 31 32
56 56 55 55 54 52 50 48 48 46 46 46 47 43 43 41 38 37 37 38 37 38 37 35 32 34 35 28 25 26 30 33
56 56 55 55 53 51 49 48 47 46 45 46 47 43 41 39 38 38 39 39 38 36 34 34 33 28 32 35 33 33 31 31
56 56 55 55 54 52 50 48 47 46 45 45 46 43 41 40 39 40 38 35 33 31 31 30 32 31 31 32 34 34 34 33
56 55 55 55 54 53 50 48 46 45 45 45 44 42 40 39 38 35 34 32 30 30 31 31 32 33 34 35 35 35 34 33
56 55 55 55 55 54 52 49 47 46 45 45 42 38 35 34 34 34 32 31 32 32 33 34 34 34 34 35 36 36 36 36
57 56 56 56 56 55 53 50 48 47 46 44 40 36 35 35 36 35 32 32 33 35 34 33 32 32 33 34 34 33 33 35

GFSFLT2_sfc_30mbdewp_054.txt.gz
Dewpoint
61 63 61 64 64 64 64 65 64 64 63 62 62 62 61 60 59 58 58 58 58 58 57 55 56 55 54 54 52 50 48 51
58 59 61 63 63 63 64 64 64 63 63 62 62 62 61 60 59 58 57 57 56 55 56 54 54 52 49 47 48 48 47 48
60 57 54 60 62 62 63 63 63 62 62 61 60 60 59 57 58 57 58 56 54 52 50 49 48 47 44 41 38 39 45 48
57 58 61 61 61 61 61 62 61 60 60 59 58 56 57 58 58 57 55 53 51 48 45 43 38 35 35 34 32 36 40 45
56 57 61 60 60 59 59 59 58 58 58 58 58 57 57 56 54 51 47 44 40 38 35 35 34 35 33 32 32 32 33 32
53 56 57 60 59 58 58 57 57 57 57 58 58 55 55 54 50 46 43 40 38 36 35 33 33 33 32 32 32 31 31 31
58 60 59 59 59 58 57 56 56 56 57 58 59 55 54 53 47 43 40 38 35 34 33 33 33 33 32 32 31 31 32 33
60 60 59 58 58 57 57 57 57 58 59 59 59 57 53 50 45 41 38 35 34 33 33 33 32 32 32 32 32 30 30 33
60 60 58 57 57 57 57 58 59 59 59 59 57 55 50 47 42 39 36 35 35 35 35 35 34 33 31 31 31 31 29 32
60 59 56 57 56 57 58 59 59 58 57 55 53 52 49 45 42 38 37 36 35 35 35 34 35 34 32 31 31 32 29 29
59 57 56 56 57 57 58 58 57 56 54 53 50 49 46 44 42 39 38 37 36 36 36 35 34 35 35 32 34 31 30 28
57 57 56 56 56 56 56 56 55 54 52 50 49 47 44 43 41 39 38 36 36 37 36 37 36 36 35 34 35 33 31 29
57 56 56 56 55 55 54 54 53 51 51 50 48 44 42 42 40 39 37 35 36 36 36 35 36 37 34 33 33 33 31 31
57 56 56 56 56 54 53 52 51 50 50 49 47 44 42 40 39 37 36 37 37 37 36 36 37 36 31 32 24 28 31 32
56 56 55 56 55 53 51 50 49 48 47 47 47 44 42 39 38 37 38 38 37 37 37 34 31 33 34 25 18 20 30 32
56 56 55 55 54 52 51 50 49 47 46 46 47 45 43 41 38 38 38 38 38 35 34 34 30 26 31 35 32 31 29 29
56 56 55 55 54 52 51 50 50 48 47 46 46 43 42 40 39 39 39 37 33 32 31 31 32 30 30 31 33 33 33 32
56 56 55 55 54 53 51 50 49 48 46 45 45 42 41 40 39 37 34 32 31 31 31 31 32 32 33 34 34 33 33 33
55 55 55 56 55 54 53 51 50 48 45 45 43 41 38 38 36 34 33 34 34 32 33 34 34 33 34 34 35 36 36 35
55 55 55 55 56 55 53 52 49 47 46 45 43 40 37 36 36 35 35 34 34 35 34 33 32 32 32 33 33 33 33 33

GFSFLT2_sfc_30mbdewp_057.txt.gz
Dewpoint
59 59 59 59 59 65 64 64 64 63 63 63 63 62 61 60 59 59 59 58 58 58 58 56 55 54 54 53 52 52 46 48
59 57 56 56 59 63 64 64 64 64 63 62 62 61 60 60 59 59 59 59 58 56 57 54 51 50 50 48 47 47 44 45
57 55 55 56 59 62 63 64 63 63 61 61 59 56 55 53 58 59 57 57 54 53 51 49 48 46 44 44 43 44 43 44
56 55 52 50 51 56 62 63 61 61 60 59 56 56 55 54 57 56 55 53 52 48 45 41 35 33 34 35 34 35 33 33
50 50 53 58 58 60 60 60 59 59 59 58 57 58 57 57 54 50 47 45 38 38 36 36 37 34 35 34 34 32 31 30
57 59 60 59 59 59 59 57 57 56 58 58 57 56 56 54 49 46 44 41 40 38 37 38 37 36 36 35 35 31 31 31
54 58 60 59 58 58 57 57 56 58 59 60 58 56 56 52 47 44 41 39 38 36 35 35 36 35 35 33 32 33 34 36
54 56 59 59 57 57 57 58 58 58 58 59 59 56 55 49 45 42 39 37 37 35 34 34 34 34 34 34 34 32 33 40
54 56 59 59 58 57 57 57 57 57 57 59 60 57 55 50 45 41 38 38 38 38 37 37 34 33 34 34 33 33 33 35
57 58 59 59 58 57 57 57 58 59 59 60 60 58 54 50 45 40 40 39 39 39 36 36 35 34 34 34 34 32 32 32
58 60 59 59 58 57 58 59 60 60 59 58 57 56 52 49 43 41 41 39 39 37 38 36 35 35 34 35 36 33 31 28
59 60 59 58 58 58 58 59 59 59 57 56 55 53 50 46 43 42 41 39 39 39 38 39 37 37 34 34 36 35 32 31
58 58 58 57 56 56 56 57 58 57 55 54 52 50 47 45 42 42 40 39 39 40 39 39 38 38 35 32 34 36 35 32
57 58 57 57 55 55 55 56 56 56 55 53 51 48 46 45 42 40 39 39 40 40 40 38 38 37 29 30 23 27 33 34
57 57 57 56 56 55 54 54 53 53 53 52 50 47 45 44 43 40 40 40 39 40 40 38 34 35 36 25 18 15 25 30
57 57 57 57 56 54 53 53 53 53 52 52 50 47 44 42 42 41 41 40 40 40 37 35 32 27 32 34 33 28 19 20
57 57 56 57 56 55 54 54 55 52 51 50 49 47 45 42 41 41 41 41 40 37 36 34 32 29 27 30 32 31 33 28
57 57 56 56 56 55 54 54 53 51 50 49 48 46 45 43 41 41 41 39 37 35 34 33 34 32 33 35 31 27 25 28
56 56 56 56 56 55 54 54 53 51 51 49 48 46 43 42 41 41 38 36 35 35 34 36 36 36 36 33 33 32 32 31
55 55 55 56 56 55 55 54 53 52 50 48 48 47 44 42 40 38 35 36 36 37 39 36 36 36 35 34 31 32 33 31